Theta_e
288 288 288 288 288 288 288 289 288 288 288 288 288 288 288 287 287 286 286 286 285 284 284 284 284 284 284 284 285 284 284 284 283 283 282 282 282 282 282 281 281 281 281 281 282 282 282 282 282 282 282 282 282 282 282 282 282 282 282 283 283 284 284 284 284 285 285 286 286
288 288 288 287 287 288 288 288 289 288 288 289 288 288 288 287 287 287 286 286 286 285 285 285 285 284 284 284 284 284 284 283 283 283 282 282 282 282 282 281 281 281 281 282 281 281 281 282 282 282 282 282 282 281 281 282 282 282 282 282 282 283 283 283 283 284 284 285 286
288 288 288 288 288 288 288 288 288 288 288 288 289 288 288 288 287 287 287 287 286 286 285 285 285 284 284 284 284 284 284 283 283 283 282 282 282 282 282 282 282 281 281 281 281 281 281 282 281 281 281 281 281 281 281 282 282 282 281 281 282 282 283 283 283 283 284 284 285
287 287 288 287 287 288 288 288 288 288 288 288 288 289 288 288 288 287 287 287 287 286 286 285 285 284 284 284 284 284 284 283 283 283 283 282 282 282 282 282 282 282 281 282 282 282 282 282 281 281 281 281 281 281 281 282 282 282 281 281 282 282 283 283 283 283 283 284 284
287 287 287 287 287 287 288 288 288 288 288 288 288 288 288 288 288 288 287 287 287 287 286 286 285 285 284 284 284 283 283 283 283 283 283 283 282 282 282 282 282 282 282 281 282 282 282 282 282 281 281 281 281 281 282 282 282 282 282 282 282 282 283 283 283 283 283 283 284
286 287 287 287 287 288 288 288 288 288 288 288 288 288 288 288 288 288 287 287 287 287 287 286 286 285 284 284 284 283 283 283 283 283 282 282 282 282 282 282 282 282 282 282 282 282 282 282 282 281 281 282 282 282 282 283 283 282 282 282 282 283 283 283 283 283 283 283 283
286 286 286 287 287 287 287 288 288 288 288 288 287 287 287 287 288 288 287 287 288 287 287 287 286 285 285 284 284 284 283 283 283 283 283 282 282 282 282 282 282 282 282 282 282 282 282 282 282 281 281 282 282 282 283 283 283 283 282 282 283 283 283 283 283 284 283 283 284
286 286 286 286 287 287 287 288 287 287 287 287 287 287 287 287 288 287 288 288 288 288 287 287 287 286 285 284 284 284 284 283 283 283 283 282 282 282 282 282 282 282 282 283 282 282 282 282 282 282 281 282 282 282 283 283 283 283 283 282 283 283 283 283 284 284 284 284 284
286 286 286 286 287 287 287 287 287 287 287 286 287 287 287 287 287 288 287 287 287 288 288 287 287 287 286 285 285 284 284 284 283 283 283 283 282 282 282 282 282 282 282 282 282 282 282 282 282 282 281 281 282 282 283 283 283 283 283 282 283 283 283 283 284 284 284 284 284
285 285 286 286 286 286 287 287 287 287 286 286 287 287 287 287 287 287 288 288 288 288 288 288 287 287 286 285 285 285 284 284 284 283 283 283 282 282 282 282 282 282 282 282 282 282 282 281 281 281 281 282 282 282 283 283 283 283 282 282 282 283 283 283 284 284 284 284 284
285 285 285 285 286 286 286 287 287 287 286 286 287 287 287 287 287 287 288 288 288 288 287 288 287 287 286 286 285 285 285 285 284 284 283 283 283 282 282 282 282 282 282 282 282 282 282 281 281 281 282 282 282 282 282 283 283 282 282 282 282 282 282 283 283 284 284 284 284
285 285 285 285 286 286 286 286 286 286 286 286 286 287 287 287 287 288 288 288 288 287 287 287 287 287 286 286 286 285 285 285 285 284 284 283 283 283 283 282 282 282 282 282 282 282 281 281 281 281 281 282 282 282 282 282 282 282 282 282 282 282 282 282 283 283 284 284 284
285 285 285 285 286 286 286 286 286 286 286 286 287 287 287 287 287 287 288 288 287 287 287 287 287 287 286 286 286 286 286 285 285 284 284 284 284 283 283 283 283 282 282 282 282 282 281 281 281 281 281 281 281 282 282 282 281 281 281 281 282 281 281 282 282 283 283 284 283
284 284 285 285 285 286 286 286 286 286 286 286 287 287 287 287 287 287 288 288 288 287 287 287 287 287 286 286 286 286 286 285 285 284 284 284 284 284 283 283 283 282 282 282 282 282 281 281 281 281 281 281 281 281 281 282 281 281 281 281 281 281 281 282 282 282 283 283 283
284 284 285 285 285 286 286 286 286 286 286 286 287 287 287 287 287 287 287 288 288 288 287 287 287 286 286 286 286 286 286 285 285 285 284 284 284 284 283 283 283 283 282 282 282 282 281 281 281 281 281 281 281 281 281 281 281 281 281 281 281 281 281 282 282 282 282 282 282
284 284 284 285 285 285 285 286 286 286 286 286 287 287 287 287 287 287 287 288 288 288 287 287 286 286 286 286 286 286 286 285 285 285 284 284 284 284 284 284 283 283 282 282 282 281 281 281 281 281 281 281 281 281 281 281 281 281 281 281 281 281 281 281 281 282 282 282 281
284 284 284 285 285 285 285 285 286 286 286 286 286 286 287 287 287 287 287 287 287 287 287 286 286 286 286 286 286 286 286 285 285 285 284 284 284 284 284 284 284 283 283 282 282 281 281 281 281 281 281 281 281 281 281 281 281 281 281 281 281 281 281 281 281 281 281 282 281
284 284 284 284 284 284 285 285 285 286 286 286 286 286 286 287 287 287 287 287 287 287 286 286 286 286 285 285 286 286 286 285 285 285 285 284 284 284 284 284 284 284 284 283 282 282 281 281 281 281 281 281 281 281 281 281 281 281 281 281 281 281 281 281 281 281 281 281 281
283 284 284 284 284 284 285 285 285 285 286 286 286 286 286 287 287 287 287 287 287 286 286 285 285 285 285 285 285 285 285 285 285 285 285 285 285 284 284 284 284 284 284 284 283 282 282 281 281 280 280 281 281 281 281 281 281 281 281 281 281 280 280 280 280 280 281 281 281
283 283 284 284 284 284 285 285 285 285 286 286 286 286 286 287 287 287 286 286 286 286 285 285 285 285 285 285 285 285 285 285 285 285 285 285 285 285 284 284 284 285 285 284 283 283 282 282 281 281 280 280 280 280 280 281 281 281 281 281 281 280 280 280 280 281 281 281 281
283 283 283 284 284 284 285 285 285 286 286 286 286 286 286 287 286 286 286 286 286 285 285 285 285 285 285 285 285 285 285 285 286 286 286 285 285 285 285 284 284 284 284 284 284 283 283 282 281 281 280 280 280 280 280 280 281 281 281 281 281 281 281 281 281 281 281 281 281
283 283 283 284 284 284 285 285 286 286 286 286 286 286 286 286 286 286 286 286 286 285 285 285 285 285 285 285 285 285 285 285 285 286 286 286 285 285 285 284 284 284 284 284 283 283 282 282 282 281 281 280 280 280 280 280 280 281 281 281 281 281 281 281 281 281 281 281 281
283 283 284 284 284 284 285 285 286 286 286 286 286 286 286 286 286 286 286 286 285 285 285 285 285 285 285 285 285 285 285 285 285 285 286 286 285 285 285 285 284 284 284 283 283 282 282 282 282 282 282 281 281 280 280 280 280 280 280 281 281 281 281 281 281 281 281 281 281
283 283 284 285 285 285 285 285 285 285 286 286 286 286 286 286 286 286 286 286 285 285 285 285 285 285 285 285 285 285 285 284 285 285 285 285 285 285 285 285 284 284 284 283 282 282 281 281 281 282 282 281 281 281 280 280 280 280 280 280 280 280 281 281 281 281 281 281 281
283 283 284 284 285 285 285 285 285 285 285 286 286 286 286 286 286 286 286 285 285 285 285 285 285 285 285 285 285 285 285 284 284 284 284 285 285 285 285 285 284 284 283 283 281 280 280 280 280 281 282 282 281 281 281 281 280 280 280 280 280 280 281 281 281 281 281 281 281
283 283 283 284 284 285 285 285 285 285 285 286 286 286 286 286 286 286 286 285 285 285 285 285 285 285 285 285 285 285 284 284 284 284 284 284 285 285 285 285 284 284 283 282 281 280 280 279 279 280 281 282 282 281 281 281 281 281 280 280 280 280 280 280 281 281 281 282 282
283 283 283 284 284 284 284 285 285 285 285 285 286 286 286 286 286 286 285 285 285 285 285 285 285 285 285 285 284 284 284 284 284 284 284 284 285 285 285 285 284 283 283 282 281 280 280 280 279 279 280 281 282 281 281 281 281 281 281 281 281 281 280 280 280 281 281 282 282
282 283 283 284 284 284 284 285 285 285 285 285 285 286 286 286 286 286 285 285 286 285 285 285 285 285 285 285 284 284 284 284 284 284 284 284 284 284 284 284 284 283 282 282 281 280 280 279 279 279 279 280 282 282 282 281 281 281 281 281 281 281 281 280 281 281 281 281 282
282 282 282 283 284 284 284 284 284 284 284 285 285 285 286 286 286 285 285 285 285 285 285 285 285 285 285 284 284 284 284 284 284 284 284 284 284 284 284 284 284 283 282 282 281 280 280 280 279 279 279 279 281 282 282 282 281 281 281 281 281 280 280 281 281 281 281 281 281
282 282 282 282 283 284 284 284 284 284 284 285 285 285 285 285 285 285 285 285 285 285 285 285 285 285 285 285 285 285 284 284 284 284 284 284 284 284 284 284 284 283 282 282 281 281 280 280 279 279 279 279 280 282 282 282 281 281 281 280 280 280 281 281 281 281 281 281 281
282 282 282 282 283 283 284 284 284 284 284 285 285 285 285 285 285 285 285 285 285 285 285 285 285 285 285 285 285 285 284 284 284 284 284 283 283 283 283 284 284 283 282 281 281 281 280 280 279 279 279 278 280 281 282 282 282 281 281 280 280 280 280 281 281 281 281 281 281
282 282 282 282 282 283 283 284 284 284 284 284 284 284 284 285 285 285 285 285 285 285 285 285 285 285 285 285 285 285 284 284 284 283 283 283 283 283 284 284 283 283 282 281 281 281 280 280 279 279 279 279 280 281 282 282 282 281 281 281 280 280 280 281 281 280 281 281 281
282 281 282 282 282 282 283 283 284 284 284 284 284 284 284 285 285 285 285 285 285 285 285 285 284 284 284 284 284 284 284 284 284 283 283 283 283 283 283 283 283 282 281 281 281 281 280 280 279 279 279 279 280 282 282 282 282 282 281 281 281 280 280 280 280 280 281 281 281
281 281 282 282 282 282 283 283 283 283 284 284 284 284 284 284 285 285 285 285 285 285 285 284 284 284 284 284 284 284 284 283 283 283 283 282 282 283 283 283 283 282 281 281 281 281 280 280 279 279 279 279 281 282 282 282 282 282 281 281 281 280 280 280 280 280 280 281 281
281 281 282 282 282 282 282 282 283 283 283 284 284 284 284 284 284 284 284 284 284 284 285 284 284 284 284 284 284 284 284 283 283 282 282 281 282 282 282 283 283 282 281 281 281 281 280 280 279 279 279 280 282 282 282 281 281 281 281 281 281 280 280 280 280 280 281 281 281
281 281 282 282 282 282 282 282 283 283 283 283 283 284 284 284 284 284 284 283 284 284 284 284 284 284 284 284 284 284 283 283 282 281 280 281 281 281 282 282 282 281 280 281 281 280 280 280 279 279 279 281 282 282 282 281 281 281 281 281 281 281 280 280 280 280 280 280 280
281 281 282 282 282 282 282 282 282 282 283 283 283 284 284 284 284 284 284 283 284 284 284 284 284 284 284 284 284 283 283 283 282 280 279 279 280 280 281 282 282 281 280 280 280 280 280 280 279 279 280 281 282 282 282 281 282 281 281 281 281 281 281 281 280 280 280 279 279
280 281 281 281 282 282 282 282 282 282 282 283 283 284 284 284 284 284 284 283 284 284 284 284 284 284 284 284 283 283 283 283 282 280 278 276 278 279 280 281 281 281 280 280 280 279 280 280 279 279 280 281 282 282 281 281 281 281 281 281 281 281 281 281 281 280 280 279 277
279 280 281 281 281 282 282 282 282 282 282 282 283 284 284 284 284 284 284 283 284 284 284 284 284 284 284 283 283 283 282 283 282 279 277 275 276 277 279 281 281 281 280 279 279 279 279 279 279 279 279 281 281 282 281 281 281 281 281 281 281 281 281 281 281 280 280 279 277
277 279 281 281 281 282 282 281 281 282 282 283 283 283 283 284 284 284 284 284 284 284 284 283 283 284 283 283 283 283 282 282 281 279 276 274 275 276 278 280 280 280 280 279 279 279 279 279 279 279 279 281 281 282 281 281 281 281 281 281 281 281 281 281 281 280 280 280 278
276 277 279 281 281 281 281 281 281 282 283 283 283 283 283 283 283 283 284 284 284 284 284 283 283 283 283 283 283 282 282 281 281 279 276 274 275 276 278 279 279 280 280 280 279 278 278 278 278 279 279 280 281 282 281 281 281 280 280 280 280 280 280 281 281 280 280 280 280
Wind_Speed
7 6 6 5 5 5 5 4 5 5 5 5 6 6 6 6 6 6 6 6 6 6 7 7 7 8 10 13 13 13 13 14 14 14 14 15 15 15 15 14 14 14 14 14 13 12 11 11 10 8 7 7 8 9 9 9 10 11 11 11 10 10 11 12 12 12 13 13 10
7 7 6 5 5 5 4 4 4 5 5 5 5 6 6 6 6 6 6 7 6 7 7 7 8 10 11 13 13 13 13 14 14 14 14 15 15 15 15 14 14 14 14 14 13 12 10 11 9 8 7 7 8 9 9 10 10 11 12 13 10 9 10 10 11 12 12 11 10
7 7 6 6 6 6 5 5 5 6 6 6 5 5 5 5 5 5 6 6 7 7 7 7 8 10 12 13 12 12 13 13 14 14 14 13 15 15 15 14 14 14 14 14 13 12 11 11 9 8 8 8 9 10 10 10 11 11 11 12 10 9 9 9 10 10 10 9 10
7 7 7 7 8 7 6 5 6 6 6 5 5 5 5 5 5 5 5 6 7 7 7 8 8 9 11 11 12 13 13 13 14 14 14 14 15 15 15 15 15 14 14 14 13 13 12 11 9 8 8 10 11 10 10 9 10 10 9 9 9 9 9 8 9 9 9 9 10
6 6 6 6 8 7 7 6 6 6 6 5 5 5 5 5 5 5 5 6 6 7 8 9 9 9 10 11 12 13 13 13 13 13 13 14 14 15 15 15 15 14 13 13 14 13 12 11 8 8 8 10 9 10 10 10 10 9 8 7 8 8 9 9 8 9 9 9 9
6 6 6 6 7 7 6 6 6 6 5 5 6 6 6 5 5 5 6 6 7 8 9 9 9 9 10 12 12 12 12 12 12 13 13 14 14 14 15 15 15 14 13 14 14 13 12 11 8 7 8 8 9 10 11 12 10 9 9 8 8 8 9 9 9 9 10 12 11
5 6 6 6 6 6 6 6 6 5 5 5 6 7 7 6 7 7 7 7 7 8 8 8 9 10 10 11 11 11 11 11 12 13 13 13 14 14 14 14 15 15 14 14 14 13 12 10 8 7 8 8 8 10 12 12 11 10 10 9 8 8 9 10 9 9 11 14 13
4 5 5 5 6 6 6 6 5 5 5 5 6 7 8 8 8 8 7 7 7 7 8 7 10 10 11 11 11 11 11 11 12 12 13 13 14 14 14 14 14 14 14 14 14 13 12 10 8 8 8 8 7 9 12 13 12 12 11 11 10 9 9 9 9 10 11 14 14
4 4 5 5 5 5 5 5 5 5 5 5 6 6 7 7 8 7 7 7 7 7 8 8 10 11 11 11 11 10 10 10 11 11 12 12 13 13 13 13 14 14 14 13 14 14 13 10 9 9 8 8 8 10 11 13 13 13 12 11 11 11 11 10 11 11 12 13 15
4 4 4 4 4 4 4 4 4 5 5 5 6 6 6 6 7 7 7 6 6 7 8 9 10 10 10 10 10 10 9 9 10 10 11 12 12 13 13 12 13 13 13 13 12 13 12 10 10 10 10 9 10 11 12 13 14 13 12 10 11 12 13 12 12 13 13 14 15
4 4 4 4 4 4 4 3 3 4 4 5 5 6 6 6 7 7 6 6 6 8 9 9 10 10 9 9 9 9 9 9 9 10 10 11 12 12 13 13 13 13 13 13 12 11 10 10 11 12 12 11 11 11 12 13 14 14 13 11 12 13 13 14 13 12 13 14 15
4 4 4 4 4 3 3 3 3 3 4 4 5 5 6 6 7 7 7 7 7 8 8 8 9 9 9 8 8 8 8 9 9 10 10 11 11 12 12 13 13 13 13 13 11 10 9 10 11 12 12 12 10 10 11 13 13 13 13 13 13 13 13 14 14 13 12 13 15
4 4 4 3 3 3 3 3 3 3 3 4 4 4 5 5 6 7 7 7 7 7 7 7 8 8 8 8 8 8 8 8 9 9 10 10 11 11 12 12 13 13 13 12 12 11 10 11 12 12 12 12 11 11 11 13 13 13 13 14 14 14 14 15 14 14 14 15 15
3 3 3 3 3 3 3 3 2 2 3 3 4 4 4 5 6 6 7 7 7 7 6 7 7 7 8 8 8 8 8 8 9 10 10 10 10 11 11 11 12 12 12 11 12 12 12 12 12 12 12 12 12 12 12 12 12 13 13 14 14 14 14 14 14 14 15 15 15
2 3 3 3 3 3 2 2 2 2 3 3 4 4 4 4 5 6 6 6 6 6 6 7 7 7 7 8 8 8 8 8 9 10 10 10 11 11 11 11 12 12 12 12 12 12 13 13 12 12 11 11 11 12 12 12 12 12 12 13 13 14 14 14 14 14 14 15 15
2 2 2 3 3 3 3 2 2 2 3 3 4 4 4 4 5 5 6 6 6 6 6 7 7 7 7 7 7 8 8 8 9 10 10 10 11 11 11 11 12 12 12 13 13 13 13 13 12 12 11 11 11 11 11 11 12 12 12 13 13 13 13 13 13 13 14 14 14
2 2 3 3 3 3 3 3 2 3 3 3 4 4 4 4 4 4 5 5 5 6 7 8 7 7 7 6 7 7 7 8 9 9 10 10 10 10 10 11 11 12 12 13 13 13 13 13 12 12 11 11 11 11 11 11 11 11 12 12 12 12 12 13 13 13 13 14 14
2 2 3 3 3 3 3 3 3 3 3 3 4 4 4 4 4 4 5 5 6 7 7 8 7 7 7 7 7 6 7 8 8 9 9 10 10 10 10 10 11 11 12 12 13 13 13 13 12 12 11 11 11 10 10 10 10 11 11 11 12 12 12 12 12 12 12 13 13
2 2 3 3 3 3 3 3 3 3 3 3 3 3 4 4 4 5 5 6 6 7 7 7 7 7 7 7 7 6 6 7 8 9 9 9 9 9 10 10 10 11 11 12 12 13 13 13 12 12 12 11 11 10 10 10 10 10 10 10 11 11 11 11 11 11 11 11 12
2 2 3 3 3 3 3 3 3 3 3 3 3 3 4 5 5 5 6 6 6 7 7 7 7 7 7 7 7 7 7 7 8 9 9 9 9 9 10 10 10 11 11 12 12 12 12 12 12 12 11 11 11 11 10 10 9 9 9 9 10 10 10 10 10 11 11 11 12
2 2 2 2 3 3 3 2 2 3 3 3 3 4 5 5 5 6 6 6 6 6 7 7 7 7 7 7 7 7 7 6 8 8 9 9 9 10 9 9 10 11 11 12 12 12 12 12 12 11 11 11 11 11 10 10 10 10 10 9 10 10 11 11 11 11 11 11 12
2 2 2 2 2 2 2 2 2 2 2 3 3 4 5 5 5 5 5 5 6 6 7 7 7 7 7 7 7 7 7 7 7 8 8 8 9 9 9 8 9 10 11 12 12 12 12 12 11 11 11 10 11 11 11 10 10 10 10 10 10 11 11 11 11 11 11 11 11
1 1 2 2 2 2 1 1 2 2 3 3 4 4 5 5 5 5 5 5 5 6 6 6 7 7 7 7 7 7 7 7 7 8 8 8 8 8 8 8 9 10 11 11 12 12 12 11 11 11 10 10 10 10 10 10 10 10 10 10 10 10 10 10 10 10 10 10 11
1 1 1 1 1 1 1 1 2 2 3 3 4 4 4 4 4 5 5 5 6 6 6 5 5 6 6 6 6 6 7 7 7 8 8 8 7 7 7 7 8 9 10 10 11 12 12 11 10 10 9 9 9 9 9 9 9 9 9 10 10 9 9 9 10 10 10 10 9
1 1 1 1 1 1 1 1 2 2 3 3 3 4 4 4 4 4 5 5 5 5 5 5 5 5 5 5 5 6 6 7 7 7 7 7 7 7 7 7 7 7 8 9 12 13 14 12 11 9 8 7 7 7 7 8 9 9 9 9 9 9 9 9 9 10 9 9 9
1 1 2 1 1 2 2 2 2 2 2 3 3 3 3 4 4 4 4 5 5 5 5 4 4 4 4 4 5 5 5 6 6 6 7 7 7 6 6 6 6 6 7 9 11 13 14 14 14 12 9 7 7 7 7 7 8 8 8 9 9 9 9 9 9 10 9 9 9
1 1 2 2 2 2 2 2 2 2 2 2 3 3 3 3 3 3 4 4 4 4 4 3 3 3 3 4 5 5 5 5 5 6 6 6 6 6 6 7 6 6 7 9 11 12 12 14 14 14 12 9 7 7 7 7 7 8 8 8 8 9 9 9 9 9 9 9 8
1 1 2 2 2 2 2 2 2 2 2 2 2 2 2 2 3 3 3 3 3 3 3 3 2 2 2 3 4 4 4 5 5 5 5 5 6 6 6 6 7 7 8 9 10 10 11 12 13 13 13 10 7 6 7 7 7 7 7 8 8 9 9 9 9 9 9 9 8
1 1 2 2 3 2 2 2 2 1 1 1 2 2 2 2 2 2 2 2 1 1 1 2 1 1 2 3 3 3 4 4 4 4 5 5 5 5 6 6 7 8 8 9 9 9 10 11 12 12 12 11 8 6 6 6 6 6 7 7 7 8 8 8 8 8 8 8 8
2 2 2 3 3 3 3 2 2 1 1 1 2 2 2 2 2 2 2 1 1 0 1 1 1 2 2 2 2 3 3 4 4 4 5 5 5 5 5 6 7 7 8 8 8 8 9 10 10 11 11 11 8 6 6 6 6 6 6 7 8 8 9 9 9 9 9 8 8
2 2 2 3 3 3 3 3 2 2 2 1 2 2 2 2 3 2 2 1 1 0 0 0 1 2 2 2 3 3 4 4 5 5 5 4 4 4 5 6 7 7 8 8 7 7 8 8 9 10 10 10 8 6 5 6 6 6 6 7 8 9 9 8 9 9 9 9 8
3 3 3 3 3 3 3 3 3 3 2 2 2 2 2 3 2 2 1 0 0 0 0 0 1 2 2 3 3 4 5 5 5 5 5 5 4 4 4 5 7 7 7 8 7 7 7 7 8 8 8 9 7 6 5 6 6 6 6 7 8 9 8 7 8 9 9 9 8
4 4 3 3 3 3 3 3 3 3 3 3 2 2 2 3 2 1 1 1 1 1 1 1 2 2 3 3 4 4 5 5 6 6 6 6 5 4 4 5 6 6 7 8 7 6 6 6 7 7 7 8 6 5 5 5 5 5 6 7 8 8 8 8 8 8 9 8 8
4 4 4 4 3 3 3 4 4 4 4 4 3 3 3 3 2 2 1 1 1 1 1 1 2 2 3 3 4 4 5 5 5 6 7 7 6 5 4 4 5 5 6 8 7 6 6 6 6 6 6 7 5 5 5 5 5 5 5 6 7 7 7 7 8 8 8 8 7
5 5 5 4 4 3 4 4 4 5 5 5 4 4 4 3 3 2 1 0 1 1 1 1 1 1 2 2 3 3 4 4 5 5 6 7 7 5 3 3 4 6 7 7 8 7 6 6 5 6 6 6 4 4 5 5 5 5 6 6 7 7 7 6 6 7 7 8 8
6 5 5 4 4 4 4 4 4 5 5 5 5 5 5 4 3 2 1 1 2 2 1 1 0 1 1 2 2 2 3 3 3 3 3 5 6 6 4 3 4 6 7 7 8 7 7 6 5 6 7 6 4 4 4 4 4 4 5 5 6 6 6 6 6 6 7 8 8
6 6 5 5 4 4 4 4 4 5 5 6 6 6 5 4 3 2 2 2 3 3 2 1 1 1 1 2 2 3 3 3 3 2 2 3 5 5 5 3 4 5 6 6 7 7 7 6 6 6 7 6 5 4 4 3 3 4 4 5 5 6 6 5 5 6 7 7 8
7 6 6 6 5 5 4 4 4 5 5 6 6 6 5 5 4 3 3 3 3 3 3 2 1 1 2 2 2 2 2 2 2 2 2 2 3 4 5 4 3 4 4 5 6 7 7 7 6 6 7 7 6 5 4 3 3 4 4 4 4 5 5 4 4 5 6 7 7
7 7 6 6 6 5 5 4 4 5 5 6 6 5 5 5 4 3 3 3 4 4 3 2 1 1 1 1 1 1 2 1 2 2 1 1 2 3 5 5 3 3 3 4 5 6 7 8 7 7 7 7 6 5 4 3 3 4 4 4 4 4 4 4 4 4 5 7 7
7 7 7 7 6 6 5 5 5 5 5 5 5 5 5 5 4 3 3 4 4 4 3 3 2 1 0 1 1 1 2 1 2 3 2 1 1 2 3 4 4 2 2 3 4 5 6 7 7 7 7 6 5 4 3 3 3 4 4 4 4 3 3 3 3 3 4 4 6
6 7 7 7 7 6 6 6 6 5 5 4 5 4 4 4 4 4 4 4 4 4 3 3 2 1 1 2 2 1 2 1 2 2 3 1 1 2 2 3 4 3 2 2 3 4 5 6 7 7 7 6 6 4 3 3 3 4 4 4 4 3 3 3 3 3 3 3 4
Wind_Direction
360 1 359 356 348 348 353 2 2 360 360 5 7 9 11 11 14 16 16 14 12 8 6 7 9 8 6 5 7 10 11 10 12 13 14 14 13 12 11 11 10 8 7 7 7 7 9 11 12 13 13 13 13 13 11 7 3 3 5 9 11 14 17 19 19 18 18 20 18
3 1 359 356 350 349 353 357 1 4 6 8 9 11 12 12 13 15 16 18 16 12 9 6 8 8 7 7 9 11 13 13 13 14 15 16 15 14 14 14 13 12 10 9 10 9 9 11 13 14 15 15 14 14 12 9 6 6 8 11 12 13 15 19 17 16 16 19 16
4 360 357 357 356 356 358 358 2 5 9 10 11 13 14 15 14 15 16 18 18 17 14 9 8 8 9 8 10 13 15 15 15 16 17 18 17 17 17 17 17 15 14 12 13 12 12 12 15 16 17 17 16 15 13 10 9 9 11 12 12 13 15 17 15 14 15 16 15
6 2 360 360 358 358 359 359 1 5 8 8 9 13 16 16 15 15 16 17 19 20 18 12 10 10 10 10 12 14 16 18 18 18 19 19 19 19 19 18 19 19 17 15 15 15 15 16 18 19 19 20 19 18 15 10 12 14 15 14 14 15 16 17 17 17 17 16 15
8 6 3 360 358 358 358 359 1 5 7 6 7 12 16 15 14 14 15 17 19 20 20 16 14 12 12 12 13 15 17 20 20 20 19 20 20 20 20 20 20 21 20 19 18 18 18 19 22 23 22 22 22 19 16 13 16 18 19 18 17 17 17 18 19 20 21 19 17
7 6 4 2 358 357 357 359 2 5 7 7 9 12 16 14 11 13 15 18 19 20 20 18 16 15 14 14 15 16 18 20 22 22 22 21 21 21 21 21 21 21 22 22 21 21 21 22 25 26 25 24 25 22 19 17 20 23 24 24 21 20 20 20 21 23 25 24 22
6 4 3 3 0 358 357 359 1 4 8 9 11 14 15 13 10 12 15 18 18 18 18 17 17 17 17 16 16 17 19 20 22 23 23 23 23 22 22 22 21 22 23 23 23 23 23 24 26 27 27 26 26 24 22 21 24 26 28 28 26 24 24 23 23 25 27 27 26
8 5 3 2 0 358 358 0 3 7 10 12 11 13 14 12 8 9 13 16 18 18 17 16 17 18 19 19 19 19 20 21 22 23 24 24 24 24 24 23 23 23 23 23 23 24 24 25 27 28 27 27 27 25 24 25 28 30 32 32 30 28 28 27 26 27 28 29 30
7 5 2 1 360 358 358 3 8 11 12 12 10 11 12 9 6 7 10 14 17 17 17 17 16 18 20 22 21 21 21 22 23 24 25 25 25 25 25 25 24 24 23 23 24 24 25 26 27 28 28 28 28 27 26 27 31 33 34 34 32 31 30 30 29 29 30 30 32
5 3 1 359 359 356 354 3 14 15 14 12 7 9 11 9 6 7 8 8 13 17 19 17 15 17 20 23 23 23 23 24 25 25 26 26 27 26 26 26 26 25 25 23 24 25 25 27 27 27 28 29 29 28 27 29 32 34 36 35 33 31 31 31 30 30 30 31 32
4 2 1 1 359 353 350 1 17 18 14 10 4 6 9 11 9 7 5 2 12 18 21 18 16 17 19 23 24 24 25 25 26 27 27 28 28 28 28 28 28 27 27 26 25 25 26 27 27 27 27 29 29 28 27 28 32 35 36 37 35 33 32 30 30 30 31 30 31
4 3 3 4 359 355 354 3 17 19 16 10 6 6 8 12 10 5 2 4 14 19 21 18 18 19 20 22 24 25 26 27 27 28 29 29 29 29 29 29 29 29 29 28 27 27 28 27 27 27 28 28 28 27 27 28 31 33 35 35 35 34 33 31 30 30 31 30 31
5 5 6 8 5 3 4 10 17 18 15 10 8 8 9 13 10 5 2 9 16 18 18 16 21 23 23 22 24 26 28 28 28 29 29 29 29 29 29 29 29 29 29 29 28 28 28 29 29 29 29 28 29 28 28 28 30 32 32 33 33 33 33 32 31 30 31 31 32
14 12 11 13 14 15 16 19 19 17 14 14 13 11 10 14 14 8 4 11 16 18 18 16 23 26 27 25 25 27 29 29 29 30 30 30 29 29 29 30 30 30 29 29 29 28 29 28 29 29 30 30 30 30 29 30 31 32 32 32 32 31 32 32 31 30 30 31 32
27 23 22 23 25 26 26 24 23 19 18 18 17 12 12 17 20 14 9 9 15 19 20 19 24 29 31 30 29 30 31 30 30 30 30 29 29 29 29 30 31 31 31 29 29 29 28 28 28 29 30 31 31 31 31 31 32 33 32 32 32 31 30 30 30 30 31 31 32
38 35 34 36 37 35 32 27 28 25 23 22 19 16 16 21 26 22 16 10 16 21 24 23 25 29 33 35 34 33 33 31 31 31 30 29 28 28 29 30 31 32 32 31 30 29 28 28 28 28 28 30 30 31 31 32 33 34 33 33 33 32 30 28 28 29 31 31 32
49 48 46 46 46 42 36 31 31 29 28 26 23 23 25 27 32 32 27 19 21 26 29 29 28 29 33 36 37 36 35 32 31 31 30 29 28 27 28 29 31 32 33 32 30 29 28 28 27 27 27 29 29 30 31 32 33 33 33 33 33 32 31 29 28 28 29 31 32
60 59 57 54 51 47 41 34 33 33 32 29 30 33 38 41 44 45 41 33 31 32 34 36 35 35 36 38 38 38 37 35 32 31 31 31 29 29 29 29 30 32 33 34 32 30 29 28 27 27 27 28 28 29 30 31 32 32 33 33 32 32 31 30 28 27 28 29 31
67 67 65 59 55 51 45 37 35 35 35 34 40 49 58 61 58 55 51 46 40 39 39 41 42 43 43 43 41 40 39 38 35 33 32 32 31 31 32 31 30 31 33 34 32 31 30 29 28 28 27 27 27 27 29 30 31 32 32 33 32 31 30 30 29 28 28 28 30
72 71 68 64 59 55 48 40 36 36 41 45 57 68 73 72 66 60 55 53 49 47 47 47 46 46 47 47 45 42 39 38 36 34 33 33 33 34 34 33 31 31 31 32 31 30 29 29 29 29 29 28 27 26 26 28 29 30 31 33 32 30 29 29 29 29 29 30 31
77 74 73 69 64 59 52 44 41 44 53 64 76 82 82 78 71 64 59 57 57 56 55 54 51 49 48 48 47 44 41 38 35 34 33 34 34 34 35 35 33 31 30 30 28 27 27 28 29 29 29 29 28 26 25 25 26 28 30 32 32 31 29 29 29 29 30 32 32
80 82 82 79 68 60 54 49 50 58 69 82 89 91 89 84 77 72 67 63 61 61 60 58 55 52 49 47 46 44 42 39 36 34 33 34 34 35 35 37 36 34 32 30 26 24 22 24 26 28 29 29 28 27 26 25 25 26 28 30 32 32 31 30 30 30 31 33 35
87 98 104 99 86 75 64 59 65 76 86 96 100 99 96 90 86 81 75 70 66 62 60 59 58 55 53 49 47 45 43 41 37 35 34 35 37 36 36 38 39 37 35 33 28 22 19 18 21 24 26 28 27 27 27 26 25 25 26 27 30 32 34 34 33 33 33 35 38
102 117 120 113 110 101 87 72 77 86 95 103 106 105 103 98 92 87 81 76 72 69 65 62 60 60 59 55 51 48 45 43 39 35 33 33 37 39 40 39 39 39 39 39 33 26 21 15 14 17 21 25 25 26 27 28 27 26 25 25 28 31 35 38 38 38 38 39 42
137 139 137 133 136 122 102 86 85 91 99 107 111 112 109 104 98 92 87 83 79 76 73 70 65 62 60 60 55 51 48 46 41 36 32 30 33 39 45 45 41 40 41 44 41 35 29 22 15 11 12 20 22 24 26 30 28 27 26 26 26 29 32 37 40 41 41 42 44
163 160 157 161 159 143 125 108 98 98 106 114 121 122 120 116 107 99 94 90 87 84 80 75 70 63 58 58 54 51 48 49 44 38 32 28 27 34 45 53 46 43 43 46 44 40 34 28 21 13 8 11 18 21 23 30 28 27 27 28 27 27 29 31 36 39 40 41 43
174 170 166 175 177 163 143 124 112 109 113 124 132 134 132 128 119 110 103 98 97 96 94 90 89 86 76 65 56 48 44 46 46 42 35 27 24 29 39 54 52 46 42 44 45 42 36 31 24 16 10 6 15 20 21 24 25 26 27 28 28 28 28 29 31 34 37 40 41
174 178 182 189 185 175 159 140 125 119 120 124 136 140 143 140 131 121 113 109 112 115 114 109 107 103 91 75 66 56 48 43 42 41 37 26 23 28 37 50 55 48 40 39 45 44 39 33 26 19 12 4 10 18 23 22 23 25 26 28 27 27 28 29 28 30 33 37 40
176 186 195 200 191 183 173 159 144 131 123 127 140 153 162 162 151 140 131 127 136 127 112 99 96 79 68 67 69 67 62 55 46 41 36 27 22 27 37 47 57 52 41 34 43 45 42 35 28 21 13 5 5 13 22 22 23 26 28 27 26 26 27 28 28 28 29 33 38
182 194 204 208 198 191 184 174 162 154 151 154 164 176 181 179 172 169 165 167 159 83 52 50 53 52 55 60 61 61 60 58 51 44 37 27 20 24 35 46 54 51 42 31 40 45 45 38 30 22 13 5 5 11 20 22 24 28 31 30 27 26 27 28 29 28 28 29 34
192 201 207 211 205 200 192 184 179 179 184 184 185 189 192 193 194 192 187 178 165 86 24 5 27 29 33 43 47 50 49 48 43 38 32 24 17 19 32 50 54 50 39 25 35 45 47 41 32 22 12 1 1 10 20 23 25 30 34 33 29 27 27 26 28 28 27 27 29
200 205 209 210 207 203 198 194 194 195 198 198 198 200 207 214 209 204 193 187 220 265 284 5 21 17 18 30 36 41 43 41 35 28 20 13 10 16 32 52 55 47 33 17 27 41 49 43 33 21 8 353 355 7 21 26 27 32 38 41 35 32 29 26 27 27 26 24 25
205 207 209 210 207 204 201 201 205 207 207 205 205 209 218 231 224 215 215 243 258 292 332 17 19 15 15 22 27 34 36 34 27 19 10 1 360 8 29 55 58 46 28 9 18 34 48 46 32 16 360 343 343 360 21 30 30 33 38 42 40 37 33 30 29 27 24 20 20
208 209 210 208 204 201 202 205 209 212 213 210 208 212 220 228 221 214 214 233 267 304 349 17 16 15 15 19 22 30 33 27 19 11 2 353 351 358 21 60 73 58 31 8 12 26 42 47 29 6 346 331 336 356 17 27 31 36 40 44 44 42 38 34 33 30 25 19 16
211 211 211 208 203 200 202 205 210 214 216 214 211 215 218 217 214 209 207 227 273 279 291 15 9 10 16 23 24 30 35 33 21 9 357 344 339 343 4 55 81 69 45 12 9 19 35 45 24 353 333 323 337 360 14 20 25 33 39 43 48 47 44 40 37 34 29 23 17
215 213 214 210 205 202 204 206 210 214 217 217 216 218 220 218 212 204 198 220 248 251 248 229 265 338 12 28 31 34 37 50 49 27 357 337 331 333 346 25 67 66 51 15 8 13 26 38 19 347 328 322 342 3 12 15 18 25 32 38 45 46 47 46 44 41 35 29 21
221 218 215 213 210 207 206 208 212 215 218 219 219 219 219 220 216 209 208 231 245 247 247 241 258 338 17 20 27 25 28 39 63 57 16 343 330 328 334 357 49 60 50 19 7 7 14 25 17 352 335 330 346 359 7 11 12 17 24 32 38 42 45 49 52 52 48 42 30
223 221 218 216 215 212 210 213 215 218 221 223 222 220 218 218 218 211 210 234 251 257 259 259 274 6 26 13 25 36 37 18 52 61 47 356 331 324 324 335 26 53 48 23 8 2 3 8 13 359 342 332 345 354 359 3 8 13 18 24 30 36 39 44 50 56 59 59 48
220 222 219 219 219 217 216 217 219 222 224 226 225 223 220 220 220 213 210 229 251 261 269 275 294 6 28 350 3 92 110 120 90 87 80 25 327 318 317 321 348 31 48 32 11 0 357 357 3 357 344 328 339 347 351 351 4 12 16 19 21 26 32 40 44 50 60 71 71
215 221 221 220 220 220 220 221 223 224 226 228 227 226 224 224 223 218 217 229 243 253 261 269 276 284 298 280 253 183 154 166 130 117 111 123 295 302 305 308 317 337 27 44 18 2 353 350 354 351 342 329 336 340 343 344 1 9 13 15 14 16 22 32 41 43 49 65 82
207 218 223 222 221 221 222 225 228 228 227 224 225 227 228 227 224 221 222 229 235 241 246 252 250 240 232 249 238 183 148 218 147 125 122 151 226 265 278 285 293 301 330 46 27 7 352 345 346 346 343 334 329 331 339 343 1 9 10 10 7 7 11 18 33 39 39 40 66